SCP
-0 -0 0 0 0 0 -0 -0 0 0 0 0 0 0 0 -0 -0 -0 -0 -0 -0 -1 -0 -0 -0 -0 -0 -0 -0 -0 0 0 -0 -0 -0 0 0 -0 -0 -0 -0 -0 -0 -0 -0 -0 -0 -0 0
0 -0 0 0 0 -0 -0 0 0 0 0 0 0 0 0 -0 0 -0 0 -0 -0 -0 0 0 0 0 -0 -0 -0 -0 0 0 0 -0 -0 0 0 0 -0 -0 -0 -0 -0 -0 -0 -0 -0 -0 0
0 -0 0 0 0 0 0 0 0 0 0 0 0 0 0 0 -0 0 0 0 0 0 -0 -0 0 0 0 0 0 0 0 0 0 0 0 0 0 0 0 -0 -0 -0 -0 -0 -0 -0 -0 -0 -0
0 0 0 0 0 0 0 0 0 0 0 0 0 0 0 0 0 0 0 0 0 0 0 0 -0 0 0 0 0 0 0 0 0 0 0 0 0 0 0 0 0 -0 -0 -0 -0 -0 -0 -0 -0
0 0 0 0 0 0 0 0 0 0 0 0 0 0 0 0 0 0 0 0 -0 0 0 0 0 1 1 0 0 0 0 0 0 0 0 0 0 0 0 0 0 0 -0 -0 -0 -0 -0 -0 0
0 0 0 0 0 0 0 0 0 0 0 0 0 0 0 0 0 0 0 0 0 0 0 1 1 1 1 1 1 1 0 0 0 0 0 0 0 0 0 0 0 0 0 -0 -0 -0 -0 -0 0
0 0 0 0 0 0 0 0 0 0 0 0 0 0 0 0 0 0 0 0 0 0 1 1 1 1 1 1 1 1 1 1 0 0 0 0 0 0 0 0 0 0 0 0 0 0 0 0 0
0 0 -0 -0 0 0 0 0 0 0 0 0 0 0 0 0 0 0 0 0 0 0 0 -0 -0 -0 0 1 0 0 1 1 1 0 0 0 0 0 0 0 0 0 0 0 0 0 0 0 0
0 0 0 0 -0 0 0 0 0 0 0 0 0 0 0 0 0 0 0 0 0 0 0 1 -0 -1 -1 1 1 1 1 1 1 1 1 1 0 0 0 0 0 0 0 0 0 0 0 0 0
0 0 0 0 0 0 0 0 0 0 0 0 0 0 0 0 0 0 0 0 0 0 0 0 -0 0 -0 0 1 1 1 1 1 1 1 1 0 0 0 0 0 0 0 0 0 0 0 0 0
0 0 0 0 0 0 0 0 0 0 0 0 0 0 0 0 0 0 0 0 0 0 0 0 0 0 1 1 2 3 2 1 1 1 1 1 0 0 0 0 1 1 1 0 0 0 0 0 -0
0 0 0 0 0 0 0 0 0 0 0 0 0 0 0 0 0 0 0 0 0 0 0 0 0 0 1 1 2 2 2 2 2 1 1 1 1 1 0 0 1 1 1 0 0 0 0 0 0
0 0 0 0 0 0 0 0 0 0 0 0 0 0 0 0 0 0 0 0 0 0 0 0 0 0 0 0 2 1 2 1 2 2 2 2 1 1 1 0 1 1 1 0 0 0 0 0 0
0 0 0 0 0 0 0 0 0 0 0 0 0 0 0 0 0 0 0 0 0 0 0 0 0 0 0 0 1 2 1 2 2 1 2 2 2 1 1 1 0 1 0 0 0 0 0 0 0
0 0 0 0 0 0 0 -0 0 0 0 0 0 0 0 0 0 0 0 0 0 0 0 0 0 0 0 0 0 0 1 2 1 1 1 2 1 1 1 1 0 1 0 0 0 0 1 1 0
0 0 0 0 0 0 0 -0 0 0 0 0 0 0 0 0 0 0 0 0 0 0 0 0 0 0 0 0 0 0 0 1 1 1 1 2 1 1 1 1 0 0 1 0 0 0 0 1 0
0 0 0 0 0 0 0 0 -0 0 0 0 0 0 0 0 0 0 0 0 0 0 0 0 0 0 0 0 0 0 0 0 0 0 1 2 1 1 1 1 1 1 1 0 1 1 1 1 0
0 0 0 0 0 0 0 0 0 0 0 0 0 0 0 0 0 0 0 0 0 0 0 0 0 0 0 0 0 -0 0 -0 0 2 1 1 2 1 1 1 1 1 1 1 1 2 1 1 0
0 0 0 0 0 0 0 0 0 0 0 0 0 0 0 0 0 0 0 0 0 0 0 0 0 0 0 0 0 0 -0 0 -1 1 1 1 2 2 1 2 1 1 0 1 1 1 1 0 0
0 0 0 0 0 0 0 0 -0 0 0 0 0 0 0 0 0 0 0 0 0 0 0 0 0 0 0 0 0 0 -0 -0 0 -1 1 1 2 4 1 2 0 1 0 1 1 1 1 0 0
0 0 0 0 0 -0 0 0 0 0 0 0 0 0 0 0 0 0 0 0 0 0 0 0 0 0 0 0 0 0 -0 -0 0 -0 0 0 1 2 2 1 1 1 0 1 1 1 0 0 0
0 0 0 0 0 0 0 0 0 0 0 0 0 0 0 0 0 0 0 0 0 0 0 0 0 0 0 0 0 0 -0 -0 -0 -0 0 0 0 1 2 2 1 1 1 0 2 1 0 0 0
0 0 0 0 -0 0 -0 0 -0 0 0 0 0 0 0 0 0 0 0 0 0 0 0 0 0 0 0 0 0 0 0 -0 -0 -0 -0 -0 0 0 2 3 1 2 1 1 1 1 0 1 0
0 0 0 0 0 0 -0 0 -0 0 0 0 0 0 0 0 0 0 0 0 0 0 0 0 0 0 0 0 0 0 -0 -0 -0 -0 -0 -0 0 1 2 2 2 3 1 1 1 1 1 0 1
0 0 0 0 0 0 0 0 0 0 0 0 0 0 0 0 0 0 0 0 0 0 0 0 0 0 0 0 0 0 0 -0 -0 -0 -0 0 1 0 0 1 3 2 2 1 1 2 1 0 0
0 0 0 0 0 0 0 0 0 0 0 0 0 0 0 0 0 0 0 0 0 0 0 0 0 0 -0 -0 0 0 -0 -0 -0 -0 -0 0 0 0 0 -0 1 2 4 2 2 2 1 1 1
0 0 0 0 0 0 0 0 0 0 0 0 0 0 0 0 0 0 0 0 0 0 0 0 0 0 -0 -0 0 0 0 -0 0 0 -0 0 0 0 0 1 3 4 4 3 2 2 2 1 2
0 0 0 0 0 0 0 0 0 0 0 0 0 0 0 0 0 0 0 0 0 0 0 0 0 -0 -0 -0 0 0 0 -0 0 0 0 0 -0 0 0 0 0 3 2 2 1 3 2 2 1
0 0 0 0 0 0 0 0 0 0 0 0 0 0 0 0 0 0 0 0 0 0 0 0 0 0 -0 -0 -0 0 0 0 0 0 0 0 0 0 0 0 -0 3 3 3 3 2 2 2 1
0 0 0 0 0 0 0 0 0 0 0 0 0 0 0 0 0 0 0 0 0 0 0 0 0 0 0 -0 -0 0 0 0 0 0 0 0 0 1 0 0 -0 1 3 3 3 2 3 3 2
Wind_Speed_500mb
6 11 18 20 11 15 27 31 38 39 31 28 29 33 43 42 33 15 26 30 26 1 3 5 26 29 26 23 21 20 21 18 17 21 27 30 32 33 37 40 38 32 26 26 25 23 24 25 24
5 6 15 17 15 22 6 39 40 30 25 21 20 26 32 39 34 29 40 37 33 5 3 7 30 30 28 26 22 20 21 20 17 19 25 29 33 33 34 37 36 31 25 25 23 21 21 22 20
2 2 19 10 22 27 16 33 29 20 28 28 23 18 18 13 35 24 37 37 29 10 13 13 35 32 31 27 25 22 21 24 21 20 25 28 31 33 35 36 36 31 25 24 21 21 21 20 17
12 14 20 13 30 12 31 27 16 19 23 25 25 15 28 18 24 30 35 35 29 13 15 6 9 34 31 30 27 25 25 28 25 23 26 30 32 34 35 36 36 33 27 23 20 21 20 18 15
13 21 21 24 29 17 31 20 12 10 16 21 19 23 14 29 22 34 37 34 23 14 15 11 10 25 34 32 29 28 28 30 31 27 27 31 34 36 37 37 38 35 28 24 21 21 20 18 15
28 18 18 23 25 22 27 22 15 18 17 19 15 18 11 37 35 37 35 32 25 13 17 13 15 14 35 37 34 31 31 34 36 33 31 31 34 38 39 39 39 37 32 27 23 21 21 19 16
22 19 28 35 16 36 27 13 18 13 11 20 14 16 13 34 37 37 35 29 23 8 23 17 13 20 27 46 40 37 34 35 41 39 36 34 34 38 41 40 40 38 35 31 26 23 23 21 17
21 17 30 28 19 22 15 7 13 11 15 13 14 8 23 38 42 36 28 24 20 14 15 14 14 26 35 47 48 43 40 38 41 44 41 39 37 40 43 43 42 39 36 35 31 27 25 22 19
15 11 22 14 30 27 27 16 13 12 12 10 6 7 23 27 32 30 26 21 17 13 8 11 8 25 29 36 51 46 44 45 47 49 47 45 44 45 47 47 47 44 40 39 35 32 28 25 20
16 16 15 15 19 19 18 14 12 10 15 15 4 14 19 20 24 24 25 25 26 26 22 17 14 20 23 19 37 44 49 51 56 59 56 55 49 48 50 50 52 48 44 41 38 35 31 27 21
9 19 16 13 17 13 15 14 14 17 15 13 16 17 21 22 22 20 20 21 23 26 25 21 30 19 30 26 40 45 46 56 61 64 64 60 56 50 44 46 53 55 53 48 44 41 36 29 19
15 11 7 12 5 9 13 13 21 18 14 12 9 14 20 21 20 21 22 20 23 23 25 26 22 26 20 36 44 44 57 53 64 69 69 68 64 56 52 52 51 56 59 55 50 45 37 30 24
21 13 5 15 14 17 12 22 23 24 19 5 9 17 20 22 20 21 21 24 24 24 28 30 42 45 35 28 44 58 42 55 58 65 76 76 71 66 59 54 57 48 58 57 51 40 33 28 22
19 18 22 22 22 16 19 26 25 27 11 8 14 20 21 19 20 20 21 23 24 28 29 33 37 47 45 41 36 49 58 52 60 63 67 75 76 78 65 66 64 55 44 52 50 34 40 29 38
15 24 27 33 26 10 12 28 25 23 1 18 20 19 19 17 12 18 20 21 21 27 29 37 31 33 47 52 50 44 60 66 61 76 74 73 75 76 71 74 70 63 57 55 40 52 41 47 37
26 28 25 21 21 12 5 27 22 5 18 25 23 17 13 9 13 13 17 23 27 27 34 41 41 40 45 60 59 64 60 71 81 76 81 84 80 79 80 79 79 77 61 59 63 54 56 48 39
28 19 27 17 24 10 19 24 27 36 28 25 24 17 7 9 12 15 18 22 28 33 38 44 41 48 54 57 63 69 77 80 81 95 77 82 87 81 91 86 80 81 70 67 63 62 56 57 47
17 16 23 19 18 16 29 38 35 34 30 30 21 12 10 12 16 20 22 25 30 35 40 48 54 51 53 56 61 68 73 89 80 74 82 84 93 94 96 89 82 83 85 69 79 65 60 54 51
18 22 28 25 26 31 30 36 37 43 41 31 24 17 12 13 18 22 26 31 35 39 43 49 54 56 48 45 54 58 62 75 86 82 84 84 94 104 93 90 92 87 95 77 79 76 69 62 55
19 27 29 31 29 18 32 42 43 36 30 31 24 21 16 15 19 24 29 37 41 43 44 49 55 52 52 56 60 65 77 78 79 73 92 107 90 115 103 108 104 91 96 83 82 81 77 75 61
25 27 30 29 27 36 46 45 47 44 22 22 25 25 18 16 20 27 32 42 45 45 49 49 52 63 58 56 67 60 64 68 69 86 95 108 99 113 120 113 103 89 98 100 90 88 89 81 71
30 18 14 23 27 27 21 29 36 18 30 27 40 40 26 9 20 28 40 50 49 51 54 53 51 56 58 59 63 64 72 88 93 83 74 102 104 101 125 110 113 95 101 97 101 93 93 83 85
21 20 23 31 33 35 41 22 29 29 33 34 43 32 6 9 22 35 42 48 51 55 58 57 51 53 68 72 63 70 73 81 93 106 105 92 101 111 111 108 107 97 105 94 102 100 101 82 77
16 23 35 40 33 28 42 30 22 11 22 19 22 10 2 13 30 37 47 53 56 55 55 60 59 62 57 67 66 72 73 89 90 96 95 85 90 85 86 112 107 104 103 98 95 103 99 92 73
25 18 10 11 20 25 19 11 25 16 21 17 15 6 5 21 32 44 53 54 57 57 51 60 61 66 66 66 66 70 70 83 86 83 83 80 87 85 108 93 109 109 98 101 94 99 90 85 85
22 20 11 9 8 20 36 13 7 24 28 28 11 3 14 27 40 47 53 47 53 53 56 53 59 67 72 67 67 69 69 79 78 66 73 66 90 94 136 116 88 92 108 103 99 103 83 81 94
15 17 5 12 18 22 20 22 15 28 19 13 9 6 26 36 36 47 48 45 48 56 55 60 62 68 74 70 71 73 65 71 76 60 55 81 74 87 100 132 139 120 112 109 93 99 88 80 83
17 9 8 7 9 13 14 18 13 21 10 8 8 22 27 34 36 47 48 43 50 52 56 60 62 69 74 69 69 70 68 67 73 67 36 58 88 80 88 107 123 117 111 102 85 79 85 83 79
18 22 16 12 13 8 11 8 11 19 17 6 18 31 35 32 41 46 44 48 49 53 52 58 64 68 68 69 76 73 68 67 65 68 41 55 48 69 69 103 145 120 106 94 94 88 84 87 83
31 29 29 12 15 17 20 28 13 3 2 17 29 21 18 26 38 44 48 43 52 52 55 63 65 65 67 69 73 72 68 63 60 62 51 38 67 47 61 100 89 138 110 103 99 97 88 90 87
Wind_Direction_500mb
166 3 340 292 250 229 255 261 77 58 58 28 38 23 75 54 47 71 16 10 17 290 22 222 178 166 165 170 175 180 177 169 157 161 163 161 160 158 159 158 157 154 148 146 138 138 136 134 122
205 151 258 272 249 254 327 52 66 58 62 43 52 3 54 62 62 53 19 14 17 338 265 304 194 176 173 173 181 187 194 192 184 171 173 170 167 166 168 166 164 160 154 155 149 148 147 144 127
97 66 259 224 234 261 42 60 45 45 58 31 22 346 45 22 54 29 13 14 15 351 267 359 200 190 179 185 186 195 204 207 204 193 183 179 177 175 175 176 174 169 164 165 161 160 160 158 136
292 226 247 259 260 235 66 65 25 33 68 31 14 73 87 75 63 30 10 14 17 39 221 260 261 205 194 192 197 201 209 218 216 211 197 188 184 184 185 185 184 182 180 181 177 171 171 174 156
254 266 254 246 243 99 83 56 48 25 39 15 8 24 10 105 65 25 11 4 8 353 273 279 298 238 212 205 205 207 212 217 221 219 211 199 192 191 191 193 193 195 194 195 191 183 182 184 177
259 254 262 249 215 107 92 50 54 41 25 358 44 352 318 66 29 7 1 355 352 352 287 270 280 286 233 219 211 213 216 218 219 221 219 211 201 198 198 199 200 202 206 207 204 195 195 196 195
260 281 276 296 306 77 82 60 48 23 322 27 1 313 260 0 5 359 351 343 337 345 298 259 258 294 294 231 219 214 218 220 222 222 220 217 211 205 204 204 203 206 209 211 214 209 205 207 209
293 291 276 276 276 101 94 69 69 14 2 316 293 336 339 359 350 352 346 337 329 6 15 321 311 305 313 238 224 217 217 218 221 224 223 221 217 213 209 209 209 210 212 214 216 219 213 213 214
269 261 250 358 356 76 59 32 9 355 296 325 294 6 4 350 347 349 350 340 331 330 23 294 284 296 306 235 231 224 222 220 220 224 224 224 221 217 214 213 215 216 215 216 219 221 220 218 218
248 246 19 40 20 15 23 22 329 344 318 286 25 348 343 341 341 343 348 347 337 340 346 25 310 286 270 239 242 235 230 223 221 222 222 223 224 224 221 219 220 220 222 220 222 222 222 221 218
244 258 36 57 39 359 345 311 3 292 289 353 337 312 325 332 331 335 338 346 339 329 326 325 352 313 268 245 236 253 248 233 225 225 226 223 223 223 224 224 223 223 221 222 223 223 222 221 223
270 233 326 318 17 301 291 330 280 281 296 309 304 296 309 313 323 325 329 332 329 330 324 311 318 331 324 252 244 233 251 248 234 228 228 226 222 218 224 215 230 227 226 224 224 224 222 221 181
247 266 232 258 265 274 300 278 294 285 284 296 286 298 302 306 315 322 317 315 317 324 321 319 307 314 309 321 250 239 230 246 244 238 230 229 221 218 214 220 226 237 228 222 223 222 217 216 191
340 303 286 277 267 275 274 291 291 270 243 272 297 302 305 318 316 320 330 334 323 315 309 311 308 302 308 301 313 255 245 226 234 234 235 231 230 220 213 220 208 224 227 223 217 213 211 210 209
280 277 266 243 225 245 343 285 252 230 249 296 285 300 308 304 338 350 341 335 328 313 307 297 298 297 289 288 290 288 255 240 225 227 222 230 229 222 209 217 208 211 220 211 216 206 201 211 208
258 254 264 239 169 200 145 273 302 161 288 285 290 302 289 1 333 339 331 319 311 297 304 296 289 287 286 279 286 280 274 258 235 236 222 218 229 225 211 215 211 204 212 203 214 200 205 211 204
218 266 220 175 191 204 209 259 293 283 282 277 286 278 302 311 327 347 323 316 305 304 299 298 293 282 281 285 284 284 275 269 266 239 227 223 226 227 210 214 213 206 202 208 203 203 204 209 199
342 244 281 288 284 232 243 256 263 280 275 272 258 247 274 308 326 329 328 326 314 305 300 297 297 297 292 283 285 289 284 279 277 264 222 227 226 228 217 217 209 208 202 206 205 203 200 208 200
318 291 278 280 276 269 275 280 272 276 267 250 231 217 250 281 306 315 321 319 314 308 302 296 297 300 301 300 294 290 289 288 284 271 254 223 232 227 225 212 207 212 203 205 207 203 205 203 206
295 279 276 272 267 275 271 273 280 267 253 237 206 217 238 273 299 314 317 317 312 307 304 301 294 297 291 284 279 279 277 267 267 276 270 239 229 226 225 213 211 210 206 204 207 200 203 200 198
248 257 264 288 316 292 269 265 265 236 205 187 205 224 232 266 304 309 319 323 315 309 306 304 293 289 296 295 293 293 284 274 281 277 261 262 233 221 221 219 211 210 208 201 206 202 201 199 197
266 252 306 282 284 277 320 290 292 196 191 203 212 214 224 285 298 307 320 325 321 315 308 303 297 291 291 292 295 288 287 281 267 263 263 256 251 241 211 218 213 209 210 206 205 204 202 203 199
266 314 299 281 276 277 269 266 262 253 188 203 225 191 147 281 300 319 321 321 315 314 315 312 302 301 301 294 283 288 290 287 293 275 266 263 257 255 201 214 216 209 215 206 206 206 206 199 200
268 284 274 256 248 252 259 237 274 185 202 159 104 134 187 317 319 314 327 322 319 314 310 311 309 305 300 296 291 286 293 289 294 290 275 261 258 261 233 222 217 205 214 205 209 212 210 199 193
226 254 286 287 213 236 249 271 257 288 183 124 108 125 320 319 313 331 323 322 323 322 315 303 301 310 304 301 294 288 290 292 300 289 279 260 253 247 219 231 220 207 211 209 211 213 211 202 193
206 239 239 259 263 315 321 257 265 79 88 101 117 206 261 328 325 325 318 322 320 318 321 310 304 299 304 299 296 290 292 295 303 299 274 262 246 249 222 238 220 221 210 210 209 212 211 202 197
224 222 261 316 293 263 241 267 120 117 124 164 214 338 327 321 322 322 317 322 321 320 314 313 310 296 304 302 300 298 300 297 307 308 277 252 246 250 226 225 219 223 211 209 208 209 210 207 205
232 8 212 197 252 261 267 306 304 147 176 91 342 317 330 314 325 321 322 328 323 319 316 313 307 306 301 305 304 302 300 303 308 313 296 264 249 234 232 227 223 214 212 210 207 203 212 212 206
188 229 224 249 260 265 300 268 115 359 351 15 310 314 314 330 325 321 323 324 320 320 317 314 308 308 305 303 305 306 307 307 311 315 297 263 262 245 236 221 235 212 209 204 206 200 208 210 206
237 221 211 209 234 227 265 277 318 0 4 283 274 288 334 333 322 322 321 327 324 319 317 316 313 310 309 306 304 302 307 309 311 310 319 283 252 250 241 232 247 208 202 200 202 204 204 202 209
Wind_Speed_850mb
6 11 18 20 11 15 27 31 38 39 31 28 29 33 43 42 33 15 26 30 26 1 3 5 26 29 26 23 21 20 21 18 17 21 27 30 32 33 37 40 38 32 26 26 25 23 24 25 24
5 6 15 17 15 22 6 39 40 30 25 21 20 26 32 39 34 29 40 37 33 5 3 7 30 30 28 26 22 20 21 20 17 19 25 29 33 33 34 37 36 31 25 25 23 21 21 22 20
2 2 19 10 22 27 16 33 29 20 28 28 23 18 18 13 35 24 37 37 29 10 13 13 35 32 31 27 25 22 21 24 21 20 25 28 31 33 35 36 36 31 25 24 21 21 21 20 17
12 14 20 13 30 12 31 27 16 19 23 25 25 15 28 18 24 30 35 35 29 13 15 6 9 34 31 30 27 25 25 28 25 23 26 30 32 34 35 36 36 33 27 23 20 21 20 18 15
13 21 21 24 29 17 31 20 12 10 16 21 19 23 14 29 22 34 37 34 23 14 15 11 10 25 34 32 29 28 28 30 31 27 27 31 34 36 37 37 38 35 28 24 21 21 20 18 15
28 18 18 23 25 22 27 22 15 18 17 19 15 18 11 37 35 37 35 32 25 13 17 13 15 14 35 37 34 31 31 34 36 33 31 31 34 38 39 39 39 37 32 27 23 21 21 19 16
22 19 28 35 16 36 27 13 18 13 11 20 14 16 13 34 37 37 35 29 23 8 23 17 13 20 27 46 40 37 34 35 41 39 36 34 34 38 41 40 40 38 35 31 26 23 23 21 17
21 17 30 28 19 22 15 7 13 11 15 13 14 8 23 38 42 36 28 24 20 14 15 14 14 26 35 47 48 43 40 38 41 44 41 39 37 40 43 43 42 39 36 35 31 27 25 22 19
15 11 22 14 30 27 27 16 13 12 12 10 6 7 23 27 32 30 26 21 17 13 8 11 8 25 29 36 51 46 44 45 47 49 47 45 44 45 47 47 47 44 40 39 35 32 28 25 20
16 16 15 15 19 19 18 14 12 10 15 15 4 14 19 20 24 24 25 25 26 26 22 17 14 20 23 19 37 44 49 51 56 59 56 55 49 48 50 50 52 48 44 41 38 35 31 27 21
9 19 16 13 17 13 15 14 14 17 15 13 16 17 21 22 22 20 20 21 23 26 25 21 30 19 30 26 40 45 46 56 61 64 64 60 56 50 44 46 53 55 53 48 44 41 36 29 19
15 11 7 12 5 9 13 13 21 18 14 12 9 14 20 21 20 21 22 20 23 23 25 26 22 26 20 36 44 44 57 53 64 69 69 68 64 56 52 52 51 56 59 55 50 45 37 30 24
21 13 5 15 14 17 12 22 23 24 19 5 9 17 20 22 20 21 21 24 24 24 28 30 42 45 35 28 44 58 42 55 58 65 76 76 71 66 59 54 57 48 58 57 51 40 33 28 22
19 18 22 22 22 16 19 26 25 27 11 8 14 20 21 19 20 20 21 23 24 28 29 33 37 47 45 41 36 49 58 52 60 63 67 75 76 78 65 66 64 55 44 52 50 34 40 29 38
15 24 27 33 26 10 12 28 25 23 1 18 20 19 19 17 12 18 20 21 21 27 29 37 31 33 47 52 50 44 60 66 61 76 74 73 75 76 71 74 70 63 57 55 40 52 41 47 37
26 28 25 21 21 12 5 27 22 5 18 25 23 17 13 9 13 13 17 23 27 27 34 41 41 40 45 60 59 64 60 71 81 76 81 84 80 79 80 79 79 77 61 59 63 54 56 48 39
28 19 27 17 24 10 19 24 27 36 28 25 24 17 7 9 12 15 18 22 28 33 38 44 41 48 54 57 63 69 77 80 81 95 77 82 87 81 91 86 80 81 70 67 63 62 56 57 47
17 16 23 19 18 16 29 38 35 34 30 30 21 12 10 12 16 20 22 25 30 35 40 48 54 51 53 56 61 68 73 89 80 74 82 84 93 94 96 89 82 83 85 69 79 65 60 54 51
18 22 28 25 26 31 30 36 37 43 41 31 24 17 12 13 18 22 26 31 35 39 43 49 54 56 48 45 54 58 62 75 86 82 84 84 94 104 93 90 92 87 95 77 79 76 69 62 55
19 27 29 31 29 18 32 42 43 36 30 31 24 21 16 15 19 24 29 37 41 43 44 49 55 52 52 56 60 65 77 78 79 73 92 107 90 115 103 108 104 91 96 83 82 81 77 75 61
25 27 30 29 27 36 46 45 47 44 22 22 25 25 18 16 20 27 32 42 45 45 49 49 52 63 58 56 67 60 64 68 69 86 95 108 99 113 120 113 103 89 98 100 90 88 89 81 71
30 18 14 23 27 27 21 29 36 18 30 27 40 40 26 9 20 28 40 50 49 51 54 53 51 56 58 59 63 64 72 88 93 83 74 102 104 101 125 110 113 95 101 97 101 93 93 83 85
21 20 23 31 33 35 41 22 29 29 33 34 43 32 6 9 22 35 42 48 51 55 58 57 51 53 68 72 63 70 73 81 93 106 105 92 101 111 111 108 107 97 105 94 102 100 101 82 77
16 23 35 40 33 28 42 30 22 11 22 19 22 10 2 13 30 37 47 53 56 55 55 60 59 62 57 67 66 72 73 89 90 96 95 85 90 85 86 112 107 104 103 98 95 103 99 92 73
25 18 10 11 20 25 19 11 25 16 21 17 15 6 5 21 32 44 53 54 57 57 51 60 61 66 66 66 66 70 70 83 86 83 83 80 87 85 108 93 109 109 98 101 94 99 90 85 85
22 20 11 9 8 20 36 13 7 24 28 28 11 3 14 27 40 47 53 47 53 53 56 53 59 67 72 67 67 69 69 79 78 66 73 66 90 94 136 116 88 92 108 103 99 103 83 81 94
15 17 5 12 18 22 20 22 15 28 19 13 9 6 26 36 36 47 48 45 48 56 55 60 62 68 74 70 71 73 65 71 76 60 55 81 74 87 100 132 139 120 112 109 93 99 88 80 83
17 9 8 7 9 13 14 18 13 21 10 8 8 22 27 34 36 47 48 43 50 52 56 60 62 69 74 69 69 70 68 67 73 67 36 58 88 80 88 107 123 117 111 102 85 79 85 83 79
18 22 16 12 13 8 11 8 11 19 17 6 18 31 35 32 41 46 44 48 49 53 52 58 64 68 68 69 76 73 68 67 65 68 41 55 48 69 69 103 145 120 106 94 94 88 84 87 83
31 29 29 12 15 17 20 28 13 3 2 17 29 21 18 26 38 44 48 43 52 52 55 63 65 65 67 69 73 72 68 63 60 62 51 38 67 47 61 100 89 138 110 103 99 97 88 90 87
Wind_Direction_850mb
166 3 340 292 250 229 255 261 77 58 58 28 38 23 75 54 47 71 16 10 17 290 22 222 178 166 165 170 175 180 177 169 157 161 163 161 160 158 159 158 157 154 148 146 138 138 136 134 122
205 151 258 272 249 254 327 52 66 58 62 43 52 3 54 62 62 53 19 14 17 338 265 304 194 176 173 173 181 187 194 192 184 171 173 170 167 166 168 166 164 160 154 155 149 148 147 144 127
97 66 259 224 234 261 42 60 45 45 58 31 22 346 45 22 54 29 13 14 15 351 267 359 200 190 179 185 186 195 204 207 204 193 183 179 177 175 175 176 174 169 164 165 161 160 160 158 136
292 226 247 259 260 235 66 65 25 33 68 31 14 73 87 75 63 30 10 14 17 39 221 260 261 205 194 192 197 201 209 218 216 211 197 188 184 184 185 185 184 182 180 181 177 171 171 174 156
254 266 254 246 243 99 83 56 48 25 39 15 8 24 10 105 65 25 11 4 8 353 273 279 298 238 212 205 205 207 212 217 221 219 211 199 192 191 191 193 193 195 194 195 191 183 182 184 177
259 254 262 249 215 107 92 50 54 41 25 358 44 352 318 66 29 7 1 355 352 352 287 270 280 286 233 219 211 213 216 218 219 221 219 211 201 198 198 199 200 202 206 207 204 195 195 196 195
260 281 276 296 306 77 82 60 48 23 322 27 1 313 260 0 5 359 351 343 337 345 298 259 258 294 294 231 219 214 218 220 222 222 220 217 211 205 204 204 203 206 209 211 214 209 205 207 209
293 291 276 276 276 101 94 69 69 14 2 316 293 336 339 359 350 352 346 337 329 6 15 321 311 305 313 238 224 217 217 218 221 224 223 221 217 213 209 209 209 210 212 214 216 219 213 213 214
269 261 250 358 356 76 59 32 9 355 296 325 294 6 4 350 347 349 350 340 331 330 23 294 284 296 306 235 231 224 222 220 220 224 224 224 221 217 214 213 215 216 215 216 219 221 220 218 218
248 246 19 40 20 15 23 22 329 344 318 286 25 348 343 341 341 343 348 347 337 340 346 25 310 286 270 239 242 235 230 223 221 222 222 223 224 224 221 219 220 220 222 220 222 222 222 221 218
244 258 36 57 39 359 345 311 3 292 289 353 337 312 325 332 331 335 338 346 339 329 326 325 352 313 268 245 236 253 248 233 225 225 226 223 223 223 224 224 223 223 221 222 223 223 222 221 223
270 233 326 318 17 301 291 330 280 281 296 309 304 296 309 313 323 325 329 332 329 330 324 311 318 331 324 252 244 233 251 248 234 228 228 226 222 218 224 215 230 227 226 224 224 224 222 221 181
247 266 232 258 265 274 300 278 294 285 284 296 286 298 302 306 315 322 317 315 317 324 321 319 307 314 309 321 250 239 230 246 244 238 230 229 221 218 214 220 226 237 228 222 223 222 217 216 191
340 303 286 277 267 275 274 291 291 270 243 272 297 302 305 318 316 320 330 334 323 315 309 311 308 302 308 301 313 255 245 226 234 234 235 231 230 220 213 220 208 224 227 223 217 213 211 210 209
280 277 266 243 225 245 343 285 252 230 249 296 285 300 308 304 338 350 341 335 328 313 307 297 298 297 289 288 290 288 255 240 225 227 222 230 229 222 209 217 208 211 220 211 216 206 201 211 208
258 254 264 239 169 200 145 273 302 161 288 285 290 302 289 1 333 339 331 319 311 297 304 296 289 287 286 279 286 280 274 258 235 236 222 218 229 225 211 215 211 204 212 203 214 200 205 211 204
218 266 220 175 191 204 209 259 293 283 282 277 286 278 302 311 327 347 323 316 305 304 299 298 293 282 281 285 284 284 275 269 266 239 227 223 226 227 210 214 213 206 202 208 203 203 204 209 199
342 244 281 288 284 232 243 256 263 280 275 272 258 247 274 308 326 329 328 326 314 305 300 297 297 297 292 283 285 289 284 279 277 264 222 227 226 228 217 217 209 208 202 206 205 203 200 208 200
318 291 278 280 276 269 275 280 272 276 267 250 231 217 250 281 306 315 321 319 314 308 302 296 297 300 301 300 294 290 289 288 284 271 254 223 232 227 225 212 207 212 203 205 207 203 205 203 206
295 279 276 272 267 275 271 273 280 267 253 237 206 217 238 273 299 314 317 317 312 307 304 301 294 297 291 284 279 279 277 267 267 276 270 239 229 226 225 213 211 210 206 204 207 200 203 200 198
248 257 264 288 316 292 269 265 265 236 205 187 205 224 232 266 304 309 319 323 315 309 306 304 293 289 296 295 293 293 284 274 281 277 261 262 233 221 221 219 211 210 208 201 206 202 201 199 197
266 252 306 282 284 277 320 290 292 196 191 203 212 214 224 285 298 307 320 325 321 315 308 303 297 291 291 292 295 288 287 281 267 263 263 256 251 241 211 218 213 209 210 206 205 204 202 203 199
266 314 299 281 276 277 269 266 262 253 188 203 225 191 147 281 300 319 321 321 315 314 315 312 302 301 301 294 283 288 290 287 293 275 266 263 257 255 201 214 216 209 215 206 206 206 206 199 200
268 284 274 256 248 252 259 237 274 185 202 159 104 134 187 317 319 314 327 322 319 314 310 311 309 305 300 296 291 286 293 289 294 290 275 261 258 261 233 222 217 205 214 205 209 212 210 199 193
226 254 286 287 213 236 249 271 257 288 183 124 108 125 320 319 313 331 323 322 323 322 315 303 301 310 304 301 294 288 290 292 300 289 279 260 253 247 219 231 220 207 211 209 211 213 211 202 193
206 239 239 259 263 315 321 257 265 79 88 101 117 206 261 328 325 325 318 322 320 318 321 310 304 299 304 299 296 290 292 295 303 299 274 262 246 249 222 238 220 221 210 210 209 212 211 202 197
224 222 261 316 293 263 241 267 120 117 124 164 214 338 327 321 322 322 317 322 321 320 314 313 310 296 304 302 300 298 300 297 307 308 277 252 246 250 226 225 219 223 211 209 208 209 210 207 205
232 8 212 197 252 261 267 306 304 147 176 91 342 317 330 314 325 321 322 328 323 319 316 313 307 306 301 305 304 302 300 303 308 313 296 264 249 234 232 227 223 214 212 210 207 203 212 212 206
188 229 224 249 260 265 300 268 115 359 351 15 310 314 314 330 325 321 323 324 320 320 317 314 308 308 305 303 305 306 307 307 311 315 297 263 262 245 236 221 235 212 209 204 206 200 208 210 206
237 221 211 209 234 227 265 277 318 0 4 283 274 288 334 333 322 322 321 327 324 319 317 316 313 310 309 306 304 302 307 309 311 310 319 283 252 250 241 232 247 208 202 200 202 204 204 202 209